User: anonymous   Login
Location: *
(51.0333°S, 178.4667°E)
Time: 13:35:30
(UTC+00:00)
Language:

Cosmos 1975 - Orbit

View from above orbital plane
View from above orbital plane
View from above satellite
View from above satellite

Ground track
Ground track

The orbit data is extracted from the following two-line orbital elements,

1 19573U 88093A   20024.79805814  .00000651  00000-0  44058-4 0  9990
2 19573  82.5213 144.2918 0012881 299.7508  60.2436 15.04803908702892
Epoch (UTC): 24 January 2020 19:09:12
Eccentricity: 0.0012881
inclination: 82.5213°
perigee height: 543 km
apogee height: 561 km
right ascension of ascending node: 144.2918°
argument of perigee: 299.7508°
revolutions per day: 15.04803908
mean anomaly at epoch: 60.2436°
orbit number at epoch: 70289

The dashed part of the orbit path shows where the satellite is in the earth's shadow,  

DLR